Location: Asheville, NC
(35.6000°N, 82.5500°W)
Time: 16:22:48
(UTC-05:00)

Vanguard 2 Rocket - Pass Details

Date: 11 February 2018
Orbit: 555 x 3327 km, 32.9° (Epoch: 21 February)

Event Time Altitude Azimuth Distance (km) Brightness Sun altitude
Rises 08:59:45 0° 284° (WNW) 7,004 10.8 17.4°
Reaches altitude 10° 09:05:59 10° 274° (W) 5,631 10.5 18.5°
Maximum altitude 09:17:36 25° 227° (SW) 3,577 9.9 20.4°
Drops below altitude 10° 09:25:43 10° 177° (S) 3,800 10.8 21.8°
Sets 09:28:58 0° 163° (SSE) 4,398 11.3 22.3°
